Torrington, WY

4:04 AM MDT on October 17, 2017 (GMT -0600)
Torrington Municipal

Weather History for KTOR - March, 2012

Change the Weather History Date:

Friday, March 30, 2012

  Actual Average Record
Temperature  
Mean Temperature 61 °F 42 °F  
Max Temperature 77 °F 55 °F 80 °F (2010)
Min Temperature 44 °F 28 °F 15 °F (2007)
Degree Days  
Heating Degree Days 4 23  
Month to date heating degree days 497 817  
Since 1 July heating degree days 5235 5661  
Cooling Degree Days 0 0  
Month to date cooling degree days 0 0  
Year to date cooling degree days 0 0  
Growing Degree Days 12 (Base 50)    
Moisture  
Dew Point 26 °F    
Average Humidity 31    
Maximum Humidity 49    
Minimum Humidity 12    
Precipitation  
Precipitation 0.00 in 0.03 in 0.60 in (2016)
Month to date precipitation 0.00 0.71  
Year to date precipitation 0.72 1.31  
Sea Level Pressure  
Sea Level Pressure 29.69 in    
Wind  
Wind Speed 13 mph (WSW)    
Max Wind Speed 30 mph    
Max Gust Speed 38 mph    
Visibility 10 miles    
Events      
T = Trace of Precipitation, MM = Missing Value Source: NWS Daily Summary

Daily Weather History Graph

Daily Weather History Graph

Search for Another Location

Airport or City:

Trip Planner

Search our weather history database for the weather conditions in past years. The results will help you decide how hot, cold, wet, or windy it might be!

Date:

Astronomy

Mar. 30, 2012 Rise Set
Actual Time 6:41 AM MDT 7:20 PM MDT
Civil Twilight 6:13 AM MDT 7:48 PM MDT
Nautical Twilight 5:40 AM MDT 8:22 PM MDT
Astronomical Twilight 5:06 AM MDT 8:56 PM MDT
Moon 11:45 AM MDT (3/30) 2:03 AM MDT (3/30)
Length of Visible Light 13h 35m
Length of Day
12h 38m
Waxing Crescent, 49% of the Moon is Illuminated
Mar 30
Waxing Crescent
Mar 30
First Quarter
Apr 6
Full
Apr 13
Last Quarter
Apr 21
New

Hourly Weather History & Observations

Time (MDT) Temp. Dew Point Humidity Pressure Visibility Wind Dir Wind Speed Gust Speed Precip Events Conditions
12:53 AM 59.0 °F 27.0 °F 29% 29.75 in 10.0 mi West 13.8 mph 19.6 mph N/A   Overcast
1:53 AM 57.0 °F 30.0 °F 36% 29.74 in 10.0 mi West 16.1 mph 23.0 mph N/A   Overcast
2:53 AM 55.0 °F 30.0 °F 38% 29.73 in 10.0 mi West 19.6 mph 27.6 mph N/A   Clear
4:53 AM 48.9 °F 28.9 °F 46% 29.72 in 10.0 mi SW 11.5 mph - N/A   Clear
6:53 AM 46.9 °F 28.0 °F 48% 29.74 in 10.0 mi SW 5.8 mph - N/A   Clear
7:53 AM 50.0 °F 30.0 °F 46% 29.75 in 10.0 mi ESE 3.5 mph - N/A   Clear
8:53 AM 61.0 °F 28.9 °F 30% 29.73 in 10.0 mi West 16.1 mph 25.3 mph N/A   Clear
9:53 AM 66.0 °F 28.0 °F 24% 29.71 in 10.0 mi WNW 25.3 mph 33.4 mph N/A   Clear
10:53 AM 69.1 °F 28.0 °F 22% 29.72 in 10.0 mi West 23.0 mph 28.8 mph N/A   Clear
12:53 PM 73.9 °F 25.0 °F 16% 29.65 in 10.0 mi West 10.4 mph 19.6 mph N/A   Clear
1:53 PM 75.0 °F 23.0 °F 14% 29.64 in 10.0 mi West 10.4 mph 23.0 mph N/A   Clear
2:53 PM 75.0 °F 24.1 °F 15% 29.63 in 10.0 mi West 19.6 mph 27.6 mph N/A   Clear
3:53 PM 73.9 °F 21.0 °F 14% 29.63 in 10.0 mi WSW 12.7 mph - N/A   Clear
4:53 PM 77.0 °F 21.9 °F 13% 29.62 in 10.0 mi West 18.4 mph 24.2 mph N/A   Clear
5:53 PM 72.0 °F 24.1 °F 17% 29.65 in 10.0 mi West 12.7 mph 24.2 mph N/A   Clear
6:53 PM 70.0 °F 25.0 °F 18% 29.67 in 10.0 mi WSW 4.6 mph - N/A   Clear
7:53 PM 66.0 °F 25.0 °F 21% 29.67 in 10.0 mi WSW 5.8 mph - N/A   Clear
8:53 PM 61.0 °F 26.1 °F 26% 29.68 in 10.0 mi SW 8.1 mph - N/A   Clear
9:53 PM 62.1 °F 26.1 °F 25% 29.68 in 10.0 mi SW 9.2 mph - N/A   Clear
10:53 PM 63.0 °F 27.0 °F 26% 29.68 in 10.0 mi WSW 11.5 mph - N/A   Clear
11:53 PM 63.0 °F 28.0 °F 27% 29.69 in 10.0 mi West 17.3 mph - N/A   Clear